Hourly Weather Aliseda

Today, 3 December, Thursday

Time Temperature Precipitation Wind Pressure Humidity
00:00 +6°C° 0 mm 1 mps 723 mmHg 69%
01:00 +5°C° 0 mm 1 mps 723 mmHg 68%
02:00 +5°C° 0 mm 1 mps 723 mmHg 68%
03:00 +5°C° 0 mm 1 mps 722 mmHg 68%
04:00 +4°C° 0 mm 1 mps 722 mmHg 68%
05:00 +4°C° 0 mm 1 mps 722 mmHg 68%
06:00 +4°C° 0 mm 1 mps 722 mmHg 68%
07:00 +5°C° 0 mm 1 mps 722 mmHg 66%
08:00 +4°C° 0 mm 0 mps 722 mmHg 64%
09:00 +5°C° 0 mm 0 mps 722 mmHg 61%
10:00 +8°C° 0 mm 1 mps 721 mmHg 56%
11:00 +10°C° 0 mm 1 mps 721 mmHg 51%
12:00 +12°C° 0 mm 1 mps 721 mmHg 47%
13:00 +12°C° 0 mm 2 mps 720 mmHg 48%
14:00 +12°C° 0 mm 2 mps 720 mmHg 49%
15:00 +11°C° 0 mm 3 mps 719 mmHg 51%
16:00 +10°C° 0 mm 3 mps 719 mmHg 58%
17:00 +8°C° 0 mm 4 mps 718 mmHg 66%
18:00 +7°C° 0 mm 4 mps 718 mmHg 74%
19:00 +6°C° 0 mm 4 mps 718 mmHg 79%
20:00 +6°C° 0 mm 4 mps 717 mmHg 84%
21:00 +6°C° 0 mm 4 mps 717 mmHg 89%
22:00 +6°C° 0 mm 4 mps 716 mmHg 88%
23:00 +7°C° 0 mm 5 mps 716 mmHg 87%

Tomorrow, 4 December, Friday

Time Temperature Precipitation Wind Pressure Humidity
00:00 +7°C° 0 mm 5 mps 715 mmHg 86%
01:00 +7°C° 0.1 mm 5 mps 715 mmHg 85%
02:00 +7°C° 0.1 mm 6 mps 714 mmHg 84%
03:00 +8°C° 0.1 mm 6 mps 713 mmHg 83%
04:00 +7°C° 0.6 mm 6 mps 713 mmHg 83%
05:00 +5°C° 0.6 mm 6 mps 713 mmHg 83%
06:00 +6°C° 0.6 mm 5 mps 712 mmHg 83%
07:00 +5°C° 0.1 mm 5 mps 712 mmHg 84%
08:00 +5°C° 0.1 mm 5 mps 713 mmHg 84%
09:00 +3°C° 0.1 mm 6 mps 713 mmHg 85%
10:00 +3°C° 0.3 mm 6 mps 713 mmHg 84%
11:00 +3°C° 0.3 mm 6 mps 712 mmHg 83%
12:00 +3°C° 0.3 mm 6 mps 712 mmHg 82%
13:00 +3°C° 0.2 mm 6 mps 712 mmHg 81%
14:00 +3°C° 0.2 mm 6 mps 711 mmHg 79%
15:00 +3°C° 0.2 mm 6 mps 711 mmHg 78%
16:00 +3°C° 0.1 mm 6 mps 711 mmHg 80%
17:00 +2°C° 0.1 mm 5 mps 711 mmHg 83%
18:00 +1°C° 0.1 mm 5 mps 711 mmHg 86%
19:00 +1°C° 0 mm 5 mps 711 mmHg 85%
20:00 +1°C° 0 mm 5 mps 711 mmHg 85%
21:00 +1°C° 0 mm 5 mps 712 mmHg 84%
22:00 0°C° 0 mm 4 mps 712 mmHg 85%
23:00 0°C° 0 mm 4 mps 712 mmHg 87%

Day after tomorrow, 5 December, Saturday

Time Temperature Precipitation Wind Pressure Humidity
00:00 0°C° 0 mm 3 mps 713 mmHg 88%
01:00 0°C° 0 mm 3 mps 713 mmHg 87%
02:00 0°C° 0 mm 3 mps 714 mmHg 86%
03:00 0°C° 0 mm 3 mps 714 mmHg 86%
04:00 0°C° 0 mm 3 mps 714 mmHg 86%
05:00 0°C° 0 mm 3 mps 715 mmHg 86%
06:00 0°C° 0 mm 3 mps 715 mmHg 86%
07:00 +1°C° 0 mm 3 mps 716 mmHg 85%
08:00 +1°C° 0 mm 4 mps 716 mmHg 85%
09:00 +1°C° 0 mm 4 mps 717 mmHg 84%
10:00 +4°C° 0 mm 4 mps 717 mmHg 77%
11:00 +5°C° 0 mm 4 mps 717 mmHg 70%
12:00 +7°C° 0 mm 5 mps 718 mmHg 63%
13:00 +7°C° 0 mm 5 mps 717 mmHg 62%
14:00 +7°C° 0 mm 5 mps 717 mmHg 60%
15:00 +7°C° 0 mm 5 mps 717 mmHg 59%
16:00 +6°C° 0 mm 4 mps 717 mmHg 65%
17:00 +5°C° 0 mm 4 mps 718 mmHg 70%
18:00 +3°C° 0 mm 4 mps 718 mmHg 76%
19:00 +3°C° 0 mm 4 mps 718 mmHg 78%
20:00 +2°C° 0 mm 3 mps 718 mmHg 81%
21:00 +2°C° 0 mm 3 mps 719 mmHg 84%
22:00 +2°C° 0 mm 3 mps 719 mmHg 86%
23:00 +2°C° 0 mm 3 mps 719 mmHg 88%

6 December, Sunday

Time Temperature Precipitation Wind Pressure Humidity
00:00 +2°C° 0 mm 3 mps 719 mmHg 91%
01:00 +2°C° 0 mm 3 mps 719 mmHg 92%
02:00 +2°C° 0 mm 3 mps 719 mmHg 93%
03:00 +2°C° 0 mm 3 mps 719 mmHg 95%
04:00 +2°C° 0 mm 2 mps 719 mmHg 95%
05:00 +2°C° 0 mm 2 mps 719 mmHg 95%
06:00 +2°C° 0 mm 2 mps 719 mmHg 95%
07:00 +2°C° 0 mm 3 mps 719 mmHg 92%
08:00 +2°C° 0 mm 3 mps 720 mmHg 89%
09:00 +3°C° 0 mm 3 mps 720 mmHg 86%
10:00 +5°C° 0 mm 3 mps 720 mmHg 80%
11:00 +7°C° 0 mm 3 mps 720 mmHg 74%
12:00 +8°C° 0 mm 3 mps 720 mmHg 68%
13:00 +7°C° 0 mm 4 mps 720 mmHg 69%
14:00 +8°C° 0 mm 4 mps 720 mmHg 70%
15:00 +8°C° 0 mm 4 mps 720 mmHg 72%
16:00 +8°C° 0 mm 3 mps 720 mmHg 77%
17:00 +7°C° 0 mm 3 mps 720 mmHg 83%
18:00 +7°C° 0 mm 2 mps 720 mmHg 89%
19:00 +6°C° 0 mm 2 mps 720 mmHg 92%
20:00 +6°C° 0 mm 2 mps 720 mmHg 94%
21:00 +5°C° 0 mm 2 mps 721 mmHg 97%
22:00 +6°C° 0.1 mm 2 mps 721 mmHg 96%
23:00 +6°C° 0.1 mm 2 mps 721 mmHg 96%

7 December, Monday

Time Temperature Precipitation Wind Pressure Humidity
00:00 +7°C° 0.1 mm 2 mps 721 mmHg 96%
01:00 +7°C° 0.2 mm 3 mps 720 mmHg 96%
02:00 +7°C° 0.2 mm 3 mps 720 mmHg 95%
03:00 +6°C° 0.2 mm 4 mps 720 mmHg 95%
04:00 +7°C° 0.8 mm 4 mps 720 mmHg 95%
05:00 +7°C° 0.8 mm 4 mps 720 mmHg 96%
06:00 +8°C° 0.8 mm 4 mps 719 mmHg 96%
07:00 +8°C° 0.1 mm 4 mps 720 mmHg 95%
08:00 +10°C° 0.1 mm 3 mps 720 mmHg 94%
09:00 +10°C° 0.1 mm 3 mps 720 mmHg 93%
10:00 +11°C° 0.1 mm 4 mps 720 mmHg 88%
11:00 +12°C° 0.1 mm 5 mps 720 mmHg 83%
12:00 +13°C° 0.1 mm 5 mps 721 mmHg 77%
13:00 +13°C° 0.1 mm 5 mps 720 mmHg 77%
14:00 +13°C° 0.1 mm 5 mps 720 mmHg 77%
15:00 +13°C° 0.1 mm 4 mps 720 mmHg 76%
16:00 +12°C° 0 mm 4 mps 720 mmHg 81%
17:00 +11°C° 0 mm 4 mps 721 mmHg 86%
18:00 +10°C° 0 mm 3 mps 721 mmHg 90%
19:00 +9°C° 0 mm 3 mps 721 mmHg 92%
20:00 +9°C° 0 mm 3 mps 721 mmHg 93%
21:00 +8°C° 0 mm 3 mps 721 mmHg 94%
22:00 +8°C° 0 mm 3 mps 721 mmHg 94%
23:00 +8°C° 0 mm 3 mps 721 mmHg 94%

8 December, Tuesday

Time Temperature Precipitation Wind Pressure Humidity
00:00 +7°C° 0 mm 4 mps 721 mmHg 93%
01:00 +7°C° 0 mm 4 mps 721 mmHg 91%
02:00 +8°C° 0 mm 4 mps 721 mmHg 90%
03:00 +8°C° 0 mm 4 mps 721 mmHg 88%
04:00 +9°C° 0.1 mm 5 mps 720 mmHg 88%
05:00 +9°C° 0.1 mm 6 mps 720 mmHg 87%
06:00 +9°C° 0.1 mm 6 mps 719 mmHg 87%
07:00 +9°C° 0.4 mm 7 mps 719 mmHg 87%
08:00 +10°C° 0.4 mm 7 mps 719 mmHg 88%
09:00 +10°C° 0.4 mm 7 mps 719 mmHg 88%
10:00 +10°C° 0.3 mm 7 mps 719 mmHg 84%
11:00 +10°C° 0.3 mm 7 mps 719 mmHg 79%
12:00 +10°C° 0.3 mm 7 mps 720 mmHg 75%
13:00 +10°C° 0.1 mm 7 mps 720 mmHg 71%
14:00 +9°C° 0.1 mm 7 mps 720 mmHg 67%
15:00 +9°C° 0.1 mm 7 mps 720 mmHg 62%
16:00 +8°C° 0.1 mm 6 mps 720 mmHg 68%
17:00 +7°C° 0.1 mm 5 mps 721 mmHg 74%
18:00 +7°C° 0.1 mm 3 mps 721 mmHg 80%
19:00 +5°C° 0 mm 3 mps 722 mmHg 82%
20:00 +5°C° 0 mm 3 mps 722 mmHg 84%
21:00 +5°C° 0 mm 3 mps 722 mmHg 86%
22:00 +4°C° 0 mm 3 mps 723 mmHg 88%
23:00 +4°C° 0 mm 3 mps 723 mmHg 90%
Show more